TimeCDT,TemperatureF,Dew PointF,Humidity,Sea Level PressureIn,VisibilityMPH,Wind Direction,Wind SpeedMPH,Gust SpeedMPH,PrecipitationIn,Events,Conditions,WindDirDegrees,DateUTC
12:58 AM,29.5,25.0,83,30.38,10.0,Calm,Calm,-,N/A,,Clear,20,2013-03-27 05:58:00
1:58 AM,28.8,24.3,83,30.39,10.0,WSW,2.3,-,N/A,,Clear,240,2013-03-27 06:58:00
2:58 AM,27.7,23.9,86,30.38,10.0,Calm,Calm,-,N/A,,Clear,0,2013-03-27 07:58:00
3:58 AM,26.8,23.9,89,30.37,10.0,Calm,Calm,-,N/A,,Clear,0,2013-03-27 08:58:00
4:58 AM,26.2,23.5,90,30.37,10.0,Calm,Calm,-,N/A,,Clear,0,2013-03-27 09:58:00
5:58 AM,25.7,23.0,89,30.38,10.0,Calm,Calm,-,N/A,,Clear,0,2013-03-27 10:58:00
6:58 AM,25.0,22.5,90,30.39,10.0,Calm,Calm,-,N/A,,Clear,0,2013-03-27 11:58:00
7:58 AM,28.6,24.8,86,30.41,10.0,Calm,Calm,-,N/A,,Clear,0,2013-03-27 12:58:00
8:58 AM,39.6,29.5,67,30.42,10.0,South,6.9,-,N/A,,Clear,190,2013-03-27 13:58:00
9:58 AM,45.0,29.1,54,30.42,10.0,South,9.2,-,N/A,,Clear,170,2013-03-27 14:58:00
10:58 AM,48.2,28.9,47,30.43,10.0,SW,8.1,-,N/A,,Clear,220,2013-03-27 15:58:00
11:58 AM,51.4,27.5,40,30.42,10.0,Variable,4.6,-,N/A,,Clear,0,2013-03-27 16:58:00
12:58 PM,52.9,27.1,37,30.40,10.0,South,8.1,-,N/A,,Clear,170,2013-03-27 17:58:00
1:58 PM,55.8,29.1,36,30.36,10.0,SSW,9.2,-,N/A,,Clear,210,2013-03-27 18:58:00
2:58 PM,57.0,28.9,34,30.32,10.0,SE,8.1,-,N/A,,Clear,140,2013-03-27 19:58:00
3:58 PM,58.6,29.8,34,30.31,10.0,South,9.2,-,N/A,,Clear,170,2013-03-27 20:58:00
4:58 PM,59.4,31.8,35,30.29,10.0,ESE,8.1,-,N/A,,Clear,120,2013-03-27 21:58:00
5:58 PM,58.5,32.9,38,30.27,10.0,ESE,9.2,-,N/A,,Clear,110,2013-03-27 22:58:00
6:58 PM,56.3,32.5,41,30.27,10.0,ESE,10.4,-,N/A,,Clear,120,2013-03-27 23:58:00
7:58 PM,52.5,34.0,49,30.26,10.0,East,8.1,-,N/A,,Clear,100,2013-03-28 00:58:00
8:58 PM,50.4,34.5,55,30.27,10.0,East,5.8,-,N/A,,Clear,100,2013-03-28 01:58:00
9:58 PM,48.0,34.2,59,30.30,10.0,Calm,Calm,-,N/A,,Clear,360,2013-03-28 02:58:00
10:58 PM,42.6,36.0,77,30.31,10.0,East,1.2,-,N/A,,Clear,100,2013-03-28 03:58:00
11:58 PM,40.1,34.3,80,30.32,10.0,ENE,3.5,-,N/A,,Clear,60,2013-03-28 04:58:00